Content
SEND FEEDBACK

Daily
Averages
Monthly
Summary
United States of America

MERIZO, GUAM


Home > North America > United States > Guam
Elevation: 10 feet     Latitude: 13 14N     Longitude: 144 39E

WEATHER
 
SELECT A DAY
Number of Records: 354,384;   Date Range: 1/1/95 - 11/22/14
 
SHARE

PRINT THIS DATA

[ ← Previous Day ]
WEATHER ALMANAC - JULY 19, 2013
[ Next Day → ]
[ °C ]   °F
Weather ElementAverageHighLow
Temperature82.1 °F86.4 °F (1:55 pm)77.5 °F (10:55 pm)
Dewpoint79.1 °F82.4 °F (10:30 am)74.5 °F (2:55 am)
Humidity90.7 %100 % (1:45 am)74 % (12:35 pm)
Barometer29.78 in29.84 in (10:55 pm)29.75 in (2:55 pm)
Wind Speed10.2 mph15 mph (11:35 am)
Weather ElementAverage
Visibility9.2 mi
Wind DirectionESE (117.1 °)

Weather ElementTotal
Precipitation0.05 in
Cooling Degree Days17 (Base 65)
Growing Degree Days32 (Base 50)
Averaged from 68 records on July 19, 2013
WEATHER CONDITIONS BREAKOUT
WIND DIRECTION BREAKOUT
WEATHER BY HOUR - JULY 19, 2013
[ °C ]   °F
Local TimeTemperatureDewpointHumidityBarometerVisibilityWind DirectionWind SpeedGust SpeedPrecipitationEventsConditions
1:17 AM80.6 °F78.8 °F94 %29.78 in10.0 miENE (70°)10.4 mphMostly Cloudy
1:45 AM78.8 °F78.8 °F100 %29.77 in10.0 miEast (100°)8.1 mphLight Drizzle
1:48 AM78.8 °F77.0 °F94 %29.77 in8.0 miEast (100°)8.1 mphRainLight Rain
1:49 AM78.8 °F77.0 °F94 %29.77 in8.0 miEast (100°)9.2 mphRainLight Rain
1:53 AM78.8 °F77.0 °F94 %29.77 in8.0 miEast (100°)11.5 mphRainLight Rain
1:55 AM79.2 °F76.8 °F92 %29.77 in8.0 miEast (100°)10.4 mph0.00 inRainLight Rain
1:57 AM78.8 °F77.0 °F94 %29.77 in10.0 miEast (90°)10.4 mphMostly Cloudy
2:04 AM78.8 °F75.2 °F89 %29.77 in10.0 miEast (100°)9.2 mphMostly Cloudy
2:55 AM79.3 °F74.5 °F85 %29.76 in10.0 miEast (90°)10.4 mph0.00 inPartly Cloudy
3:55 AM78.6 °F75.4 °F90 %29.77 in10.0 miEast (80°)8.1 mphClear
4:55 AM79.5 °F77.2 °F93 %29.76 in10.0 miEast (80°)9.2 mphScattered Clouds
5:55 AM79.9 °F77.5 °F93 %29.77 in10.0 miEast (80°)9.2 mphPartly Cloudy
6:12 AM80.6 °F78.8 °F94 %29.77 in10.0 miEast (80°)11.5 mphMostly Cloudy
6:17 AM80.6 °F78.8 °F94 %29.77 in10.0 miENE (70°)10.4 mphMostly Cloudy
6:22 AM80.6 °F78.8 °F94 %29.78 in5.0 miEast (90°)12.7 mphOvercast
6:23 AM80.6 °F78.8 °F94 %29.78 in5.0 miEast (100°)11.5 mphRainRain
6:25 AM80.6 °F78.8 °F94 %29.78 in4.0 miEast (100°)13.8 mphRainRain
6:27 AM80.6 °F78.8 °F94 %29.78 in4.0 miEast (100°)13.8 mphRainRain
6:28 AM80.6 °F78.8 °F94 %29.78 in4.0 miEast (90°)13.8 mphRainLight Rain
6:34 AM80.6 °F78.8 °F94 %29.78 in9.0 miEast (90°)11.5 mphMostly Cloudy
6:39 AM80.6 °F77.0 °F89 %29.78 in10.0 miEast (90°)10.4 mphMostly Cloudy
6:55 AM79.9 °F75.6 °F87 %29.79 in10.0 miEast (90°)11.5 mph0.01 inPartly Cloudy
7:18 AM80.6 °F77.0 °F89 %29.80 in10.0 miEast (90°)11.5 mphMostly Cloudy
7:23 AM80.6 °F78.8 °F94 %29.79 in10.0 miESE (110°)12.7 mphMostly Cloudy
7:27 AM80.6 °F78.8 °F94 %29.79 in10.0 miEast (100°)10.4 mphScattered Clouds
7:55 AM80.2 °F77.7 °F92 %29.80 in10.0 miESE (110°)9.2 mphClear
8:55 AM82.6 °F80.2 °F93 %29.80 in10.0 miEast (90°)10.4 mphPartly Cloudy
9:55 AM84.7 °F81.3 °F89 %29.80 in10.0 miEast (100°)11.5 mphPartly Cloudy
10:30 AM84.2 °F82.4 °F94 %29.80 in10.0 miEast (90°)12.7 mphMostly Cloudy
10:32 AM84.2 °F82.4 °F94 %29.80 in10.0 miESE (110°)9.2 mphMostly Cloudy
10:37 AM84.2 °F82.4 °F94 %29.80 in10.0 miESE (120°)12.7 mphMostly Cloudy
10:44 AM86.0 °F82.4 °F89 %29.79 in10.0 miEast (100°)11.5 mphScattered Clouds
10:55 AM85.1 °F80.8 °F87 %29.80 in10.0 miEast (100°)11.5 mphScattered Clouds
11:07 AM86.0 °F80.6 °F84 %29.79 in10.0 miESE (110°)11.5 mphMostly Cloudy
11:09 AM86.0 °F80.6 °F84 %29.79 in10.0 miESE (110°)10.4 mphScattered Clouds
11:10 AM86.0 °F80.6 °F84 %29.79 in10.0 miEast (100°)10.4 mphMostly Cloudy
11:15 AM86.0 °F82.4 °F89 %29.79 in10.0 miESE (110°)11.5 mphScattered Clouds
11:21 AM86.0 °F82.4 °F89 %29.79 in10.0 miESE (120°)12.7 mphMostly Cloudy
11:25 AM86.0 °F80.6 °F84 %29.79 in10.0 miESE (120°)13.8 mphMostly Cloudy
11:35 AM86.0 °F80.6 °F84 %29.79 in10.0 miSE (130°)15.0 mphMostly Cloudy
11:38 AM86.0 °F80.6 °F84 %29.79 in10.0 miSE (130°)13.8 mphScattered Clouds
11:39 AM86.0 °F80.6 °F84 %29.79 in10.0 miESE (120°)12.7 mphMostly Cloudy
11:41 AM86.0 °F82.4 °F89 %29.79 in10.0 miEast (100°)11.5 mphScattered Clouds
11:55 AM85.1 °F81.9 °F90 %29.78 in10.0 miSE (130°)10.4 mphMostly Cloudy
12:35 PM86.0 °F77.0 °F74 %29.78 in10.0 miSE (130°)10.4 mphMostly Cloudy
12:55 PM85.6 °F82.0 °F89 %29.78 in10.0 miESE (120°)11.5 mphMostly Cloudy
1:09 PM86.0 °F82.4 °F89 %29.77 in10.0 miSE (140°)11.5 mphMostly Cloudy
1:55 PM86.4 °F77.0 °F74 %29.76 in10.0 miESE (110°)11.5 mphScattered Clouds
2:55 PM85.6 °F82.2 °F89 %29.75 in10.0 miESE (110°)9.2 mphScattered Clouds
2:57 PM86.0 °F77.0 °F74 %29.75 in10.0 miESE (120°)10.4 mphMostly Cloudy
3:08 PM86.0 °F77.0 °F74 %29.75 in10.0 miEast (100°)9.2 mphScattered Clouds
3:11 PM86.0 °F77.0 °F74 %29.75 in10.0 miESE (120°)8.1 mphMostly Cloudy
3:27 PM82.4 °F78.8 °F89 %29.75 in10.0 miSouth (190°)15.0 mphMostly Cloudy
3:38 PM82.4 °F80.6 °F94 %29.75 in6.0 miSouth (170°)12.7 mphRainLight Rain
3:42 PM80.6 °F80.6 °F100 %29.75 in2.5 miSouth (180°)11.5 mphRainLight Rain
3:48 PM78.8 °F78.8 °F100 %29.75 in3.0 miSouth (190°)9.2 mphRainLight Rain
3:53 PM78.8 °F78.8 °F100 %29.75 in8.0 miSSW (200°)6.9 mphMostly Cloudy
3:55 PM79.5 °F79.5 °F100 %29.75 in10.0 miSouth (190°)6.9 mph0.04 inMostly Cloudy
4:55 PM81.0 °F80.8 °F99 %29.75 in10.0 miSouth (170°)6.9 mphClear
5:13 PM80.6 °F80.6 °F100 %29.76 in10.0 miSSE (150°)6.9 mphRainLight Rain
5:20 PM80.6 °F78.8 °F94 %29.75 in10.0 miSSE (160°)6.9 mphClear
5:55 PM81.7 °F80.1 °F95 %29.76 in10.0 miSSE (150°)9.2 mph0.00 inClear
6:55 PM80.8 °F79.7 °F96 %29.78 in10.0 miSE (140°)5.8 mphScattered Clouds
7:55 PM79.9 °F78.6 °F96 %29.80 in10.0 miSSE (150°)4.6 mphClear
8:55 PM79.7 °F78.8 °F97 %29.82 in10.0 miCalmClear
9:55 PM79.5 °F78.4 °F96 %29.82 in10.0 miSouth (170°)3.5 mphPartly Cloudy
10:55 PM77.5 °F75.2 °F92 %29.84 in10.0 miSSW (210°)8.1 mphScattered Clouds
11:55 PM78.1 °F74.5 °F89 %29.82 in10.0 miSSW (200°)4.6 mphScattered Clouds
Hourly data recorded from PGUA, located miles away from Merizo, Guam







STORIES FROM OUR PARTNERS